Year,Month,Day,Hour,Minute,Value (Times are PST for temperature in C)
2008,08,04,00,00,10.40
2008,08,04,00,01,10.40
2008,08,04,00,02,10.40
2008,08,04,00,03,10.40
2008,08,04,00,04,10.40
2008,08,04,00,05,10.40
2008,08,04,00,06,10.40
2008,08,04,00,07,10.40
2008,08,04,00,08,10.40
2008,08,04,00,09,10.40
2008,08,04,00,10,10.40
2008,08,04,00,11,10.40
2008,08,04,00,12,10.40
2008,08,04,00,13,10.40
2008,08,04,00,14,10.40
2008,08,04,00,15,10.40
2008,08,04,00,16,10.40
2008,08,04,00,17,10.40
2008,08,04,00,18,10.40
2008,08,04,00,19,10.40
2008,08,04,00,20,10.40
2008,08,04,00,21,10.40
2008,08,04,00,22,10.40
2008,08,04,00,23,10.40
2008,08,04,00,24,10.40
2008,08,04,00,25,10.40
2008,08,04,00,26,10.40
2008,08,04,00,27,10.40
2008,08,04,00,28,10.40
2008,08,04,00,29,10.40
2008,08,04,00,30,10.40
2008,08,04,00,31,10.40
2008,08,04,00,32,10.40
2008,08,04,00,33,10.40
2008,08,04,00,34,10.40
2008,08,04,00,35,10.40
2008,08,04,00,36,10.40
2008,08,04,00,37,10.40
2008,08,04,00,38,10.40
2008,08,04,00,39,10.40
2008,08,04,00,40,10.40
2008,08,04,00,41,10.40
2008,08,04,00,42,10.40
2008,08,04,00,43,10.40
2008,08,04,00,44,10.40
2008,08,04,00,45,10.40
2008,08,04,00,46,10.40
2008,08,04,00,47,10.40
2008,08,04,00,48,10.40
2008,08,04,00,49,10.40
2008,08,04,00,50,10.40
2008,08,04,00,51,10.40
2008,08,04,00,52,10.40
2008,08,04,00,53,10.40
2008,08,04,00,54,10.40
2008,08,04,00,55,10.40
2008,08,04,00,56,10.40
2008,08,04,00,57,10.40
2008,08,04,00,58,10.40
2008,08,04,00,59,10.40
2008,08,04,01,00,10.40
2008,08,04,01,01,10.40
2008,08,04,01,02,10.40
2008,08,04,01,03,10.40
2008,08,04,01,04,10.50
2008,08,04,01,05,10.50
2008,08,04,01,06,10.50
2008,08,04,01,07,10.50
2008,08,04,01,08,10.50
2008,08,04,01,09,10.50
2008,08,04,01,10,10.50
2008,08,04,01,11,10.50
2008,08,04,01,12,10.50
2008,08,04,01,13,10.40
2008,08,04,01,14,10.40
2008,08,04,01,15,10.40
2008,08,04,01,16,10.40
2008,08,04,01,17,10.40
2008,08,04,01,18,10.40
2008,08,04,01,19,10.40
2008,08,04,01,20,10.40
2008,08,04,01,21,10.40
2008,08,04,01,22,10.40
2008,08,04,01,23,10.40
2008,08,04,01,24,10.40
2008,08,04,01,25,10.40
2008,08,04,01,26,10.40
2008,08,04,01,27,10.40
2008,08,04,01,28,10.40
2008,08,04,01,29,10.40
2008,08,04,01,30,10.40
2008,08,04,01,31,10.40
2008,08,04,01,32,10.40
2008,08,04,01,33,10.40
2008,08,04,01,34,10.40
2008,08,04,01,35,10.40
2008,08,04,01,36,10.40
2008,08,04,01,37,10.40
2008,08,04,01,38,10.40
2008,08,04,01,39,10.40
2008,08,04,01,40,10.40
2008,08,04,01,41,10.40
2008,08,04,01,42,10.40
2008,08,04,01,43,10.40
2008,08,04,01,44,10.40
2008,08,04,01,45,10.40
2008,08,04,01,46,10.40
2008,08,04,01,47,10.40
2008,08,04,01,48,10.40
2008,08,04,01,49,10.40
2008,08,04,01,50,10.40
2008,08,04,01,51,10.40
2008,08,04,01,52,10.40
2008,08,04,01,53,10.40
2008,08,04,01,54,10.40
2008,08,04,01,55,10.40
2008,08,04,01,56,10.40
2008,08,04,01,57,10.40
2008,08,04,01,58,10.40
2008,08,04,01,59,10.40
2008,08,04,02,00,10.40
2008,08,04,02,01,10.40
2008,08,04,02,02,10.40
2008,08,04,02,03,10.40
2008,08,04,02,04,10.30
2008,08,04,02,05,10.30
2008,08,04,02,06,10.30
2008,08,04,02,07,10.30
2008,08,04,02,08,10.30
2008,08,04,02,09,10.30
2008,08,04,02,10,10.30
2008,08,04,02,11,10.30
2008,08,04,02,12,10.30
2008,08,04,02,13,10.30
2008,08,04,02,14,10.30
2008,08,04,02,15,10.30
2008,08,04,02,16,10.30
2008,08,04,02,17,10.30
2008,08,04,02,18,10.30
2008,08,04,02,19,10.30
2008,08,04,02,20,10.30
2008,08,04,02,21,10.30
2008,08,04,02,22,10.30
2008,08,04,02,23,10.30
2008,08,04,02,24,10.30
2008,08,04,02,25,10.30
2008,08,04,02,26,10.30
2008,08,04,02,27,10.30
2008,08,04,02,28,10.30
2008,08,04,02,29,10.30
2008,08,04,02,30,10.30
2008,08,04,02,31,10.30
2008,08,04,02,32,10.30
2008,08,04,02,33,10.30
2008,08,04,02,34,10.30
2008,08,04,02,35,10.30
2008,08,04,02,36,10.30
2008,08,04,02,37,10.30
2008,08,04,02,38,10.30
2008,08,04,02,39,10.30
2008,08,04,02,40,10.30
2008,08,04,02,41,10.30
2008,08,04,02,42,10.30
2008,08,04,02,43,10.30
2008,08,04,02,44,10.30
2008,08,04,02,45,10.20
2008,08,04,02,46,10.20
2008,08,04,02,47,10.30
2008,08,04,02,48,10.30
2008,08,04,02,49,10.30
2008,08,04,02,50,10.30
2008,08,04,02,51,10.30
2008,08,04,02,52,10.30
2008,08,04,02,53,10.30
2008,08,04,02,54,10.30
2008,08,04,02,55,10.30
2008,08,04,02,56,10.20
2008,08,04,02,57,10.20
2008,08,04,02,58,10.30
2008,08,04,02,59,10.20
2008,08,04,03,00,10.30
2008,08,04,03,01,10.30
2008,08,04,03,02,10.30
2008,08,04,03,03,10.30
2008,08,04,03,04,10.30
2008,08,04,03,05,10.30
2008,08,04,03,06,10.30
2008,08,04,03,07,10.30
2008,08,04,03,08,10.30
2008,08,04,03,09,10.30
2008,08,04,03,10,10.30
2008,08,04,03,11,10.30
2008,08,04,03,12,10.30
2008,08,04,03,13,10.30
2008,08,04,03,14,10.30
2008,08,04,03,15,10.30
2008,08,04,03,16,10.30
2008,08,04,03,17,10.30
2008,08,04,03,18,10.20
2008,08,04,03,19,10.20
2008,08,04,03,20,10.20
2008,08,04,03,21,10.20
2008,08,04,03,22,10.20
2008,08,04,03,23,10.20
2008,08,04,03,24,10.20
2008,08,04,03,25,10.20
2008,08,04,03,26,10.20
2008,08,04,03,27,10.20
2008,08,04,03,28,10.20
2008,08,04,03,29,10.20
2008,08,04,03,30,10.20
2008,08,04,03,31,10.20
2008,08,04,03,32,10.20
2008,08,04,03,33,10.20
2008,08,04,03,34,10.20
2008,08,04,03,35,10.20
2008,08,04,03,36,10.20
2008,08,04,03,37,10.20
2008,08,04,03,38,10.20
2008,08,04,03,39,10.20
2008,08,04,03,40,10.20
2008,08,04,03,41,10.20
2008,08,04,03,42,10.10
2008,08,04,03,43,10.10
2008,08,04,03,44,10.10
2008,08,04,03,45,10.10
2008,08,04,03,46,10.10
2008,08,04,03,47,10.10
2008,08,04,03,48,10.10
2008,08,04,03,49,10.10
2008,08,04,03,50,10.10
2008,08,04,03,51,10.10
2008,08,04,03,52,10.10
2008,08,04,03,53,10.10
2008,08,04,03,54,10.10
2008,08,04,03,55,10.10
2008,08,04,03,56,10.10
2008,08,04,03,57,10.00
2008,08,04,03,58,10.00
2008,08,04,03,59,10.00
2008,08,04,04,00,9.90
2008,08,04,04,01,9.90
2008,08,04,04,02,9.90
2008,08,04,04,03,9.90
2008,08,04,04,04,9.90
2008,08,04,04,05,9.90
2008,08,04,04,06,9.90
2008,08,04,04,07,9.90
2008,08,04,04,08,10.00
2008,08,04,04,09,10.00
2008,08,04,04,10,10.00
2008,08,04,04,11,10.00
2008,08,04,04,12,10.00
2008,08,04,04,13,10.00
2008,08,04,04,14,10.00
2008,08,04,04,15,10.00
2008,08,04,04,16,9.90
2008,08,04,04,17,9.90
2008,08,04,04,18,9.90
2008,08,04,04,19,9.90
2008,08,04,04,20,9.90
2008,08,04,04,21,9.90
2008,08,04,04,22,9.90
2008,08,04,04,23,9.90
2008,08,04,04,24,9.90
2008,08,04,04,25,9.80
2008,08,04,04,26,9.80
2008,08,04,04,27,9.80
2008,08,04,04,28,9.80
2008,08,04,04,29,9.80
2008,08,04,04,30,9.80
2008,08,04,04,31,9.80
2008,08,04,04,32,9.80
2008,08,04,04,33,9.80
2008,08,04,04,34,9.80
2008,08,04,04,35,9.70
2008,08,04,04,36,9.70
2008,08,04,04,37,9.80
2008,08,04,04,38,9.80
2008,08,04,04,39,9.70
2008,08,04,04,40,9.70
2008,08,04,04,41,9.70
2008,08,04,04,42,9.80
2008,08,04,04,43,9.80
2008,08,04,04,44,9.80
2008,08,04,04,45,9.80
2008,08,04,04,46,9.70
2008,08,04,04,47,9.70
2008,08,04,04,48,9.70
2008,08,04,04,49,9.70
2008,08,04,04,50,9.70
2008,08,04,04,51,9.70
2008,08,04,04,52,9.70
2008,08,04,04,53,9.70
2008,08,04,04,54,9.70
2008,08,04,04,55,9.70
2008,08,04,04,56,9.70
2008,08,04,04,57,9.70
2008,08,04,04,58,9.70
2008,08,04,04,59,9.70
2008,08,04,05,00,9.70
2008,08,04,05,01,9.70
2008,08,04,05,02,9.70
2008,08,04,05,03,9.70
2008,08,04,05,04,9.70
2008,08,04,05,05,9.70
2008,08,04,05,06,9.70
2008,08,04,05,07,9.70
2008,08,04,05,08,9.70
2008,08,04,05,09,9.70
2008,08,04,05,10,9.70
2008,08,04,05,11,9.70
2008,08,04,05,12,9.70
2008,08,04,05,13,9.60
2008,08,04,05,14,9.60
2008,08,04,05,15,9.60
2008,08,04,05,16,9.60
2008,08,04,05,17,9.60
2008,08,04,05,18,9.60
2008,08,04,05,19,9.60
2008,08,04,05,20,9.60
2008,08,04,05,21,9.60
2008,08,04,05,22,9.60
2008,08,04,05,23,9.60
2008,08,04,05,24,9.50
2008,08,04,05,25,9.50
2008,08,04,05,26,9.40
2008,08,04,05,27,9.40
2008,08,04,05,28,9.40
2008,08,04,05,29,9.30
2008,08,04,05,30,9.30
2008,08,04,05,31,9.30
2008,08,04,05,32,9.30
2008,08,04,05,33,9.30
2008,08,04,05,34,9.30
2008,08,04,05,35,9.30
2008,08,04,05,36,9.30
2008,08,04,05,37,9.40
2008,08,04,05,38,9.40
2008,08,04,05,39,9.40
2008,08,04,05,40,9.40
2008,08,04,05,41,9.40
2008,08,04,05,42,9.40
2008,08,04,05,43,9.50
2008,08,04,05,44,9.50
2008,08,04,05,45,9.50
2008,08,04,05,46,9.50
2008,08,04,05,47,9.50
2008,08,04,05,48,9.50
2008,08,04,05,49,9.50
2008,08,04,05,50,9.60
2008,08,04,05,51,9.60
2008,08,04,05,52,9.50
2008,08,04,05,53,9.50
2008,08,04,05,54,9.50
2008,08,04,05,55,9.40
2008,08,04,05,56,9.40
2008,08,04,05,57,9.40
2008,08,04,05,58,9.30
2008,08,04,05,59,9.30
2008,08,04,06,00,9.30
2008,08,04,06,01,9.20
2008,08,04,06,02,9.20
2008,08,04,06,03,9.20
2008,08,04,06,04,9.20
2008,08,04,06,05,9.20
2008,08,04,06,06,9.20
2008,08,04,06,07,9.20
2008,08,04,06,08,9.20
2008,08,04,06,09,9.20
2008,08,04,06,10,9.20
2008,08,04,06,11,9.20
2008,08,04,06,12,9.20
2008,08,04,06,13,9.20
2008,08,04,06,14,9.20
2008,08,04,06,15,9.20
2008,08,04,06,16,9.30
2008,08,04,06,17,9.30
2008,08,04,06,18,9.40
2008,08,04,06,19,9.40
2008,08,04,06,20,9.40
2008,08,04,06,21,9.40
2008,08,04,06,22,9.30
2008,08,04,06,23,9.30
2008,08,04,06,24,9.30
2008,08,04,06,25,9.30
2008,08,04,06,26,9.30
2008,08,04,06,27,9.20
2008,08,04,06,28,9.20
2008,08,04,06,29,9.20
2008,08,04,06,30,9.20
2008,08,04,06,31,9.10
2008,08,04,06,32,9.10
2008,08,04,06,33,9.10
2008,08,04,06,34,9.10
2008,08,04,06,35,9.10
2008,08,04,06,36,9.10
2008,08,04,06,37,9.10
2008,08,04,06,38,9.20
2008,08,04,06,39,9.20
2008,08,04,06,40,9.20
2008,08,04,06,41,9.20
2008,08,04,06,42,9.20
2008,08,04,06,43,9.20
2008,08,04,06,44,9.20
2008,08,04,06,45,9.20
2008,08,04,06,46,9.30
2008,08,04,06,47,9.30
2008,08,04,06,48,9.30
2008,08,04,06,49,9.30
2008,08,04,06,50,9.20
2008,08,04,06,51,9.20
2008,08,04,06,52,9.20
2008,08,04,06,53,9.20
2008,08,04,06,54,9.20
2008,08,04,06,55,9.20
2008,08,04,06,56,9.30
2008,08,04,06,57,9.30
2008,08,04,06,58,9.30
2008,08,04,06,59,9.30
2008,08,04,07,00,9.30
2008,08,04,07,01,9.30
2008,08,04,07,02,9.30
2008,08,04,07,03,9.30
2008,08,04,07,04,9.30
2008,08,04,07,05,9.40
2008,08,04,07,06,9.40
2008,08,04,07,07,9.50
2008,08,04,07,08,9.50
2008,08,04,07,09,9.50
2008,08,04,07,10,9.60
2008,08,04,07,11,9.60
2008,08,04,07,12,9.60
2008,08,04,07,13,9.60
2008,08,04,07,14,9.60
2008,08,04,07,15,9.70
2008,08,04,07,16,9.70
2008,08,04,07,17,9.80
2008,08,04,07,18,9.80
2008,08,04,07,19,9.90
2008,08,04,07,20,9.90
2008,08,04,07,21,10.00
2008,08,04,07,22,10.00
2008,08,04,07,23,10.10
2008,08,04,07,24,10.10
2008,08,04,07,25,10.20
2008,08,04,07,26,10.20
2008,08,04,07,27,10.20
2008,08,04,07,28,10.20
2008,08,04,07,29,10.30
2008,08,04,07,30,10.30
2008,08,04,07,31,10.30
2008,08,04,07,32,10.30
2008,08,04,07,33,10.30
2008,08,04,07,34,10.40
2008,08,04,07,35,10.40
2008,08,04,07,36,10.40
2008,08,04,07,37,10.40
2008,08,04,07,38,10.50
2008,08,04,07,39,10.50
2008,08,04,07,40,10.50
2008,08,04,07,41,10.50
2008,08,04,07,42,10.40
2008,08,04,07,43,10.50
2008,08,04,07,44,10.50
2008,08,04,07,45,10.60
2008,08,04,07,46,10.60
2008,08,04,07,47,10.60
2008,08,04,07,48,10.70
2008,08,04,07,49,10.70
2008,08,04,07,50,10.80
2008,08,04,07,51,10.80
2008,08,04,07,52,10.90
2008,08,04,07,53,11.00
2008,08,04,07,54,11.10
2008,08,04,07,55,11.10
2008,08,04,07,56,11.20
2008,08,04,07,57,11.20
2008,08,04,07,58,11.30
2008,08,04,07,59,11.40
2008,08,04,08,00,11.50
2008,08,04,08,01,11.50
2008,08,04,08,02,11.60
2008,08,04,08,03,11.60
2008,08,04,08,04,11.70
2008,08,04,08,05,11.70
2008,08,04,08,06,11.80
2008,08,04,08,07,11.80
2008,08,04,08,08,11.90
2008,08,04,08,09,11.90
2008,08,04,08,10,11.90
2008,08,04,08,11,12.00
2008,08,04,08,12,12.00
2008,08,04,08,13,12.10
2008,08,04,08,14,12.20
2008,08,04,08,15,12.20
2008,08,04,08,16,12.30
2008,08,04,08,17,12.30
2008,08,04,08,18,12.40
2008,08,04,08,19,12.40
2008,08,04,08,20,12.50
2008,08,04,08,21,12.50
2008,08,04,08,22,12.60
2008,08,04,08,23,12.60
2008,08,04,08,24,12.60
2008,08,04,08,25,12.60
2008,08,04,08,26,12.60
2008,08,04,08,27,12.70
2008,08,04,08,28,12.70
2008,08,04,08,29,12.80
2008,08,04,08,30,12.80
2008,08,04,08,31,12.80
2008,08,04,08,32,12.90
2008,08,04,08,33,13.00
2008,08,04,08,34,13.10
2008,08,04,08,35,13.10
2008,08,04,08,36,13.20
2008,08,04,08,37,13.30
2008,08,04,08,38,13.30
2008,08,04,08,39,13.40
2008,08,04,08,40,13.40
2008,08,04,08,41,13.50
2008,08,04,08,42,13.60
2008,08,04,08,43,13.60
2008,08,04,08,44,13.70
2008,08,04,08,45,13.70
2008,08,04,08,46,13.70
2008,08,04,08,47,13.80
2008,08,04,08,48,13.80
2008,08,04,08,49,13.90
2008,08,04,08,50,14.00
2008,08,04,08,51,14.10
2008,08,04,08,52,14.20
2008,08,04,08,53,14.30
2008,08,04,08,54,14.30
2008,08,04,08,55,14.40
2008,08,04,08,56,14.40
2008,08,04,08,57,14.50
2008,08,04,08,58,14.60
2008,08,04,08,59,14.70
2008,08,04,09,00,14.80
2008,08,04,09,01,14.90
2008,08,04,09,02,15.00
2008,08,04,09,03,15.00
2008,08,04,09,04,15.00
2008,08,04,09,05,15.10
2008,08,04,09,06,15.20
2008,08,04,09,07,15.30
2008,08,04,09,08,15.40
2008,08,04,09,09,15.60
2008,08,04,09,10,15.70
2008,08,04,09,11,15.80
2008,08,04,09,12,15.90
2008,08,04,09,13,15.90
2008,08,04,09,14,16.00
2008,08,04,09,15,16.00
2008,08,04,09,16,16.10
2008,08,04,09,17,16.10
2008,08,04,09,18,16.00
2008,08,04,09,19,15.90
2008,08,04,09,20,15.80
2008,08,04,09,21,15.70
2008,08,04,09,22,15.70
2008,08,04,09,23,15.60
2008,08,04,09,24,15.40
2008,08,04,09,25,15.30
2008,08,04,09,26,15.20
2008,08,04,09,27,15.20
2008,08,04,09,28,15.10
2008,08,04,09,29,15.10
2008,08,04,09,30,15.10
2008,08,04,09,31,15.10
2008,08,04,09,32,15.20
2008,08,04,09,33,15.20
2008,08,04,09,34,15.30
2008,08,04,09,35,15.30
2008,08,04,09,36,15.30
2008,08,04,09,37,15.40
2008,08,04,09,38,15.40
2008,08,04,09,39,15.40
2008,08,04,09,40,15.40
2008,08,04,09,41,15.30
2008,08,04,09,42,15.30
2008,08,04,09,43,15.20
2008,08,04,09,44,15.20
2008,08,04,09,45,15.00
2008,08,04,09,46,15.00
2008,08,04,09,47,15.00
2008,08,04,09,48,15.00
2008,08,04,09,49,15.00
2008,08,04,09,50,15.00
2008,08,04,09,51,15.00
2008,08,04,09,52,15.00
2008,08,04,09,53,15.00
2008,08,04,09,54,15.00
2008,08,04,09,55,14.90
2008,08,04,09,56,14.80
2008,08,04,09,57,14.80
2008,08,04,09,58,14.80
2008,08,04,09,59,14.70
2008,08,04,10,00,14.70
2008,08,04,10,01,14.70
2008,08,04,10,02,14.70
2008,08,04,10,03,14.70
2008,08,04,10,04,14.70
2008,08,04,10,05,14.70
2008,08,04,10,06,14.70
2008,08,04,10,07,14.80
2008,08,04,10,08,14.90
2008,08,04,10,09,15.00
2008,08,04,10,10,15.00
2008,08,04,10,11,15.00
2008,08,04,10,12,15.10
2008,08,04,10,13,15.10
2008,08,04,10,14,15.20
2008,08,04,10,15,15.30
2008,08,04,10,16,15.30
2008,08,04,10,17,15.30
2008,08,04,10,18,15.40
2008,08,04,10,19,15.40
2008,08,04,10,20,15.40
2008,08,04,10,21,15.40
2008,08,04,10,22,15.40
2008,08,04,10,23,15.40
2008,08,04,10,24,15.40
2008,08,04,10,25,15.40
2008,08,04,10,26,15.40
2008,08,04,10,27,15.40
2008,08,04,10,28,15.50
2008,08,04,10,29,15.60
2008,08,04,10,30,15.60
2008,08,04,10,31,15.60
2008,08,04,10,32,15.60
2008,08,04,10,33,15.60
2008,08,04,10,34,15.70
2008,08,04,10,35,15.70
2008,08,04,10,36,15.80
2008,08,04,10,37,15.90
2008,08,04,10,38,16.00
2008,08,04,10,39,16.10
2008,08,04,10,40,16.30
2008,08,04,10,41,16.40
2008,08,04,10,42,16.50
2008,08,04,10,43,16.70
2008,08,04,10,44,16.90
2008,08,04,10,45,17.20
2008,08,04,10,46,17.40
2008,08,04,10,47,17.60
2008,08,04,10,48,17.80
2008,08,04,10,49,18.00
2008,08,04,10,50,18.20
2008,08,04,10,51,18.40
2008,08,04,10,52,18.50
2008,08,04,10,53,18.60
2008,08,04,10,54,18.70
2008,08,04,10,55,18.80
2008,08,04,10,56,18.80
2008,08,04,10,57,18.80
2008,08,04,10,58,18.90
2008,08,04,10,59,18.90
2008,08,04,11,00,18.80
2008,08,04,11,01,18.80
2008,08,04,11,02,18.80
2008,08,04,11,03,18.80
2008,08,04,11,04,18.80
2008,08,04,11,05,18.80
2008,08,04,11,06,18.80
2008,08,04,11,07,18.70
2008,08,04,11,08,18.70
2008,08,04,11,09,18.70
2008,08,04,11,10,18.70
2008,08,04,11,11,18.70
2008,08,04,11,12,18.70
2008,08,04,11,13,18.70
2008,08,04,11,14,18.70
2008,08,04,11,15,18.70
2008,08,04,11,16,18.70
2008,08,04,11,17,18.60
2008,08,04,11,18,18.60
2008,08,04,11,19,18.60
2008,08,04,11,20,18.50
2008,08,04,11,21,18.50
2008,08,04,11,22,18.50
2008,08,04,11,23,18.40
2008,08,04,11,24,18.40
2008,08,04,11,25,18.50
2008,08,04,11,26,18.50
2008,08,04,11,27,18.50
2008,08,04,11,28,18.50
2008,08,04,11,29,18.50
2008,08,04,11,30,18.60
2008,08,04,11,31,18.60
2008,08,04,11,32,18.70
2008,08,04,11,33,18.70
2008,08,04,11,34,18.80
2008,08,04,11,35,18.90
2008,08,04,11,36,18.90
2008,08,04,11,37,19.00
2008,08,04,11,38,19.10
2008,08,04,11,39,19.10
2008,08,04,11,40,19.10
2008,08,04,11,41,19.20
2008,08,04,11,42,19.20
2008,08,04,11,43,19.20
2008,08,04,11,44,19.10
2008,08,04,11,45,19.10
2008,08,04,11,46,19.10
2008,08,04,11,47,19.20
2008,08,04,11,48,19.20
2008,08,04,11,49,19.30
2008,08,04,11,50,19.30
2008,08,04,11,51,19.40
2008,08,04,11,52,19.40
2008,08,04,11,53,19.50
2008,08,04,11,54,19.50
2008,08,04,11,55,19.60
2008,08,04,11,56,19.60
2008,08,04,11,57,19.60
2008,08,04,11,58,19.60
2008,08,04,11,59,19.70
2008,08,04,12,00,19.70
2008,08,04,12,01,19.70
2008,08,04,12,02,19.70
2008,08,04,12,03,19.60
2008,08,04,12,04,19.60
2008,08,04,12,05,19.60
2008,08,04,12,06,19.60
2008,08,04,12,07,19.60
2008,08,04,12,08,19.70
2008,08,04,12,09,19.70
2008,08,04,12,10,19.70
2008,08,04,12,11,19.70
2008,08,04,12,12,19.70
2008,08,04,12,13,19.60
2008,08,04,12,14,19.60
2008,08,04,12,15,19.60
2008,08,04,12,16,19.50
2008,08,04,12,17,19.50
2008,08,04,12,18,19.40
2008,08,04,12,19,19.40
2008,08,04,12,20,19.40
2008,08,04,12,21,19.50
2008,08,04,12,22,19.50
2008,08,04,12,23,19.60
2008,08,04,12,24,19.60
2008,08,04,12,25,19.50
2008,08,04,12,26,19.40
2008,08,04,12,27,19.40
2008,08,04,12,28,19.30
2008,08,04,12,29,19.30
2008,08,04,12,30,19.30
2008,08,04,12,31,19.30
2008,08,04,12,32,19.30
2008,08,04,12,33,19.30
2008,08,04,12,34,19.30
2008,08,04,12,35,19.30
2008,08,04,12,36,19.40
2008,08,04,12,37,19.40
2008,08,04,12,38,19.50
2008,08,04,12,39,19.50
2008,08,04,12,40,19.60
2008,08,04,12,41,19.70
2008,08,04,12,42,19.80
2008,08,04,12,43,19.80
2008,08,04,12,44,19.90
2008,08,04,12,45,20.00
2008,08,04,12,46,20.00
2008,08,04,12,47,20.00
2008,08,04,12,48,19.90
2008,08,04,12,49,19.90
2008,08,04,12,50,19.80
2008,08,04,12,51,19.90
2008,08,04,12,52,19.80
2008,08,04,12,53,19.80
2008,08,04,12,54,19.80
2008,08,04,12,55,19.90
2008,08,04,12,56,19.90
2008,08,04,12,57,20.00
2008,08,04,12,58,20.00
2008,08,04,12,59,20.10
2008,08,04,13,00,20.10
2008,08,04,13,01,20.10
2008,08,04,13,02,20.20
2008,08,04,13,03,20.20
2008,08,04,13,04,20.10
2008,08,04,13,05,20.00
2008,08,04,13,06,20.00
2008,08,04,13,07,20.00
2008,08,04,13,08,20.00
2008,08,04,13,09,20.00
2008,08,04,13,10,20.10
2008,08,04,13,11,20.10
2008,08,04,13,12,20.20
2008,08,04,13,13,20.30
2008,08,04,13,14,20.40
2008,08,04,13,15,20.40
2008,08,04,13,16,20.40
2008,08,04,13,17,20.40
2008,08,04,13,18,20.40
2008,08,04,13,19,20.30
2008,08,04,13,20,20.30
2008,08,04,13,21,20.30
2008,08,04,13,22,20.30
2008,08,04,13,23,20.30
2008,08,04,13,24,20.30
2008,08,04,13,25,20.30
2008,08,04,13,26,20.40
2008,08,04,13,27,20.40
2008,08,04,13,28,20.50
2008,08,04,13,29,20.70
2008,08,04,13,30,20.80
2008,08,04,13,31,20.90
2008,08,04,13,32,21.10
2008,08,04,13,33,21.20
2008,08,04,13,34,21.30
2008,08,04,13,35,21.40
2008,08,04,13,36,21.60
2008,08,04,13,37,21.70
2008,08,04,13,38,21.80
2008,08,04,13,39,21.80
2008,08,04,13,40,22.00
2008,08,04,13,41,22.10
2008,08,04,13,42,22.10
2008,08,04,13,43,22.20
2008,08,04,13,44,22.20
2008,08,04,13,45,22.10
2008,08,04,13,46,22.10
2008,08,04,13,47,22.10
2008,08,04,13,48,22.10
2008,08,04,13,49,22.00
2008,08,04,13,50,21.90
2008,08,04,13,51,21.90
2008,08,04,13,52,21.80
2008,08,04,13,53,21.80
2008,08,04,13,54,21.80
2008,08,04,13,55,21.80
2008,08,04,13,56,21.80
2008,08,04,13,57,21.80
2008,08,04,13,58,21.80
2008,08,04,13,59,21.90
2008,08,04,14,00,21.90
2008,08,04,14,01,21.90
2008,08,04,14,02,22.00
2008,08,04,14,03,22.00
2008,08,04,14,04,22.10
2008,08,04,14,05,22.10
2008,08,04,14,06,22.10
2008,08,04,14,07,22.00
2008,08,04,14,08,21.90
2008,08,04,14,09,21.80
2008,08,04,14,10,21.70
2008,08,04,14,11,21.60
2008,08,04,14,12,21.50
2008,08,04,14,13,21.40
2008,08,04,14,14,21.30
2008,08,04,14,15,21.30
2008,08,04,14,16,21.30
2008,08,04,14,17,21.30
2008,08,04,14,18,21.30
2008,08,04,14,19,21.30
2008,08,04,14,20,21.30
2008,08,04,14,21,21.30
2008,08,04,14,22,21.40
2008,08,04,14,23,21.40
2008,08,04,14,24,21.50
2008,08,04,14,25,21.60
2008,08,04,14,26,21.70
2008,08,04,14,27,21.80
2008,08,04,14,28,21.80
2008,08,04,14,29,22.00
2008,08,04,14,30,22.10
2008,08,04,14,31,22.20
2008,08,04,14,32,22.40
2008,08,04,14,33,22.50
2008,08,04,14,34,22.60
2008,08,04,14,35,22.70
2008,08,04,14,36,22.80
2008,08,04,14,37,22.90
2008,08,04,14,38,23.00
2008,08,04,14,39,23.00
2008,08,04,14,40,23.10
2008,08,04,14,41,23.20
2008,08,04,14,42,23.20
2008,08,04,14,43,23.30
2008,08,04,14,44,23.30
2008,08,04,14,45,23.40
2008,08,04,14,46,23.40
2008,08,04,14,47,23.40
2008,08,04,14,48,23.40
2008,08,04,14,49,23.30
2008,08,04,14,50,23.30
2008,08,04,14,51,23.20
2008,08,04,14,52,23.20
2008,08,04,14,53,23.10
2008,08,04,14,54,23.10
2008,08,04,14,55,23.00
2008,08,04,14,56,22.90
2008,08,04,14,57,22.90
2008,08,04,14,58,22.80
2008,08,04,14,59,22.70
2008,08,04,15,00,22.70
2008,08,04,15,01,22.60
2008,08,04,15,02,22.50
2008,08,04,15,03,22.40
2008,08,04,15,04,22.40
2008,08,04,15,05,22.40
2008,08,04,15,06,22.40
2008,08,04,15,07,22.30
2008,08,04,15,08,22.30
2008,08,04,15,09,22.30
2008,08,04,15,10,22.30
2008,08,04,15,11,22.30
2008,08,04,15,12,22.30
2008,08,04,15,13,22.30
2008,08,04,15,14,22.30
2008,08,04,15,15,22.40
2008,08,04,15,16,22.40
2008,08,04,15,17,22.40
2008,08,04,15,18,22.50
2008,08,04,15,19,22.50
2008,08,04,15,20,22.60
2008,08,04,15,21,22.60
2008,08,04,15,22,22.60
2008,08,04,15,23,22.70
2008,08,04,15,24,22.70
2008,08,04,15,25,22.80
2008,08,04,15,26,22.80
2008,08,04,15,27,22.90
2008,08,04,15,28,22.90
2008,08,04,15,29,23.00
2008,08,04,15,30,23.10
2008,08,04,15,31,23.10
2008,08,04,15,32,23.20
2008,08,04,15,33,23.20
2008,08,04,15,34,23.20
2008,08,04,15,35,23.20
2008,08,04,15,36,23.10
2008,08,04,15,37,23.10
2008,08,04,15,38,23.10
2008,08,04,15,39,23.10
2008,08,04,15,40,23.20
2008,08,04,15,41,23.20
2008,08,04,15,42,23.20
2008,08,04,15,43,23.20
2008,08,04,15,44,23.20
2008,08,04,15,45,23.20
2008,08,04,15,46,23.20
2008,08,04,15,47,23.30
2008,08,04,15,48,23.30
2008,08,04,15,49,23.30
2008,08,04,15,50,23.20
2008,08,04,15,51,23.20
2008,08,04,15,52,23.10
2008,08,04,15,53,23.00
2008,08,04,15,54,23.00
2008,08,04,15,55,22.90
2008,08,04,15,56,22.90
2008,08,04,15,57,22.90
2008,08,04,15,58,22.90
2008,08,04,15,59,22.90
2008,08,04,16,00,22.90
2008,08,04,16,01,23.00
2008,08,04,16,02,23.00
2008,08,04,16,03,23.00
2008,08,04,16,04,23.10
2008,08,04,16,05,23.10
2008,08,04,16,06,23.10
2008,08,04,16,07,23.10
2008,08,04,16,08,23.00
2008,08,04,16,09,22.90
2008,08,04,16,10,22.90
2008,08,04,16,11,22.90
2008,08,04,16,12,22.80
2008,08,04,16,13,22.80
2008,08,04,16,14,22.80
2008,08,04,16,15,22.80
2008,08,04,16,16,22.90
2008,08,04,16,17,22.90
2008,08,04,16,18,22.90
2008,08,04,16,19,22.90
2008,08,04,16,20,22.90
2008,08,04,16,21,22.90
2008,08,04,16,22,23.00
2008,08,04,16,23,23.00
2008,08,04,16,24,23.00
2008,08,04,16,25,23.00
2008,08,04,16,26,23.10
2008,08,04,16,27,23.10
2008,08,04,16,28,23.10
2008,08,04,16,29,23.20
2008,08,04,16,30,23.10
2008,08,04,16,31,23.10
2008,08,04,16,32,23.10
2008,08,04,16,33,23.10
2008,08,04,16,34,23.10
2008,08,04,16,35,23.10
2008,08,04,16,36,23.10
2008,08,04,16,37,23.10
2008,08,04,16,38,23.20
2008,08,04,16,39,23.20
2008,08,04,16,40,23.20
2008,08,04,16,41,23.30
2008,08,04,16,42,23.30
2008,08,04,16,43,23.30
2008,08,04,16,44,23.40
2008,08,04,16,45,23.50
2008,08,04,16,46,23.50
2008,08,04,16,47,23.60
2008,08,04,16,48,23.60
2008,08,04,16,49,23.60
2008,08,04,16,50,23.70
2008,08,04,16,51,23.80
2008,08,04,16,52,23.80
2008,08,04,16,53,23.80
2008,08,04,16,54,23.80
2008,08,04,16,55,23.80
2008,08,04,16,56,23.80
2008,08,04,16,57,23.70
2008,08,04,16,58,23.70
2008,08,04,16,59,23.60
2008,08,04,17,00,23.50
2008,08,04,17,01,23.50
2008,08,04,17,02,23.40
2008,08,04,17,03,23.30
2008,08,04,17,04,23.20
2008,08,04,17,05,23.10
2008,08,04,17,06,23.00
2008,08,04,17,07,22.90
2008,08,04,17,08,22.90
2008,08,04,17,09,22.80
2008,08,04,17,10,22.80
2008,08,04,17,11,22.80
2008,08,04,17,12,22.80
2008,08,04,17,13,22.80
2008,08,04,17,14,22.80
2008,08,04,17,15,22.80
2008,08,04,17,16,22.80
2008,08,04,17,17,22.80
2008,08,04,17,18,22.90
2008,08,04,17,19,22.90
2008,08,04,17,20,22.90
2008,08,04,17,21,22.90
2008,08,04,17,22,22.90
2008,08,04,17,23,23.00
2008,08,04,17,24,23.00
2008,08,04,17,25,23.00
2008,08,04,17,26,23.00
2008,08,04,17,27,23.10